This is the latest recevied weather packets stored in our database for station/object WX4LTG. If no packets are shown the sender has not sent any weather packets the latest 10 day(s).
| Time | Temp. | Humidity | Pressure | Rain* | Wind** | Luminosity | Snow |
|---|---|---|---|---|---|---|---|
| 1777702611 | 22.22° C | 33% | 1010.2 hPa | 0 mm | - | 0 W/m² | - |
| 1777702308 | 22.78° C | 32% | 1010.4 hPa | 0 mm | - | 0 W/m² | - |
| 1777702009 | 22.78° C | 32% | 1010.1 hPa | 0 mm | - | 0 W/m² | - |
| 1777701706 | 22.78° C | 32% | 1010.1 hPa | 0 mm | - | 0 W/m² | - |
| 1777701403 | 22.78° C | 32% | 1010.2 hPa | 0 mm | - | 0 W/m² | - |
| 1777701101 | 22.78° C | 32% | 1010.1 hPa | 0 mm | - | 0 W/m² | - |
| 1777700800 | 23.33° C | 31% | 1010 hPa | 0 mm | - | 0 W/m² | - |
| 1777700497 | 23.33° C | 31% | 1009.8 hPa | 0 mm | - | 0 W/m² | - |
| 1777700194 | 23.33° C | 31% | 1010 hPa | 0 mm | - | 0 W/m² | - |
| 1777699891 | 23.89° C | 30% | 1009.8 hPa | 0 mm | - | 0 W/m² | - |
| 1777699590 | 23.89° C | 30% | 1010 hPa | 0 mm | - | 0 W/m² | - |
| 1777699287 | 23.89° C | 30% | 1009.8 hPa | 0 mm | - | 0 W/m² | - |
| 1777698985 | 23.89° C | 32% | 1010.2 hPa | 0 mm | - | 0 W/m² | - |
| 1777698683 | 23.89° C | 34% | 1009.8 hPa | 0 mm | - | 0 W/m² | - |
| 1777698379 | 23.89° C | 36% | 1009.9 hPa | 0 mm | - | 0 W/m² | - |
| 1777698076 | 24.44° C | 33% | 1009.6 hPa | 0 mm | - | 0 W/m² | - |
| 1777697772 | 24.44° C | 28% | 1009.6 hPa | 0 mm | - | 0 W/m² | - |
| 1777697469 | 24.44° C | 29% | 1009.8 hPa | 0 mm | - | 0 W/m² | - |
| 1777697166 | 25° C | 27% | 1009.8 hPa | 0 mm | - | 0 W/m² | - |
| 1777696863 | 25.56° C | 26% | 1009.5 hPa | 0 mm | - | 0 W/m² | - |
| 1777696561 | 25.56° C | 25% | 1009.8 hPa | 0 mm | - | 0 W/m² | - |
| 1777696256 | 25.56° C | 26% | 1009.6 hPa | 0 mm | - | 0 W/m² | - |
| 1777695951 | 25.56° C | 26% | 1009.8 hPa | 0 mm | - | 0 W/m² | - |
| 1777695649 | 25° C | 27% | 1009.6 hPa | 0 mm | - | 0 W/m² | - |
| 1777695347 | 25.56° C | 26% | 1009.6 hPa | 0 mm | - | 0 W/m² | - |
* Rain latest hour (hover to see other rain measurements)
** Current wind speed in m/s (hover to see current wind gust speed)